[[[{"header":{"parameterUnit":"kt","parameterCategory":2,"dx":1,"dy":1,"la1":30.253999710083008,"la2":30.299108505249023,"lo1":-89.0895004272461,"lo2":-89.04439544677734,"nx":28,"ny":28,"refTime":"2022-10-19T09:00:00:Z","depth":"0","parameterNumber":2,"parameterNumberName":"U-component_of_CURRENTS"},"data":[-0.1444,-0.1335,-0.1301,-0.1175,-0.1152,-0.1084,-0.107,-0.1118,-0.1277,-0.1584,-0.1899,-0.2215,-0.2682,-0.2792,-0.2712,-0.2567,-0.2358,-0.225,-0.2184,-0.2376,-0.2375,-0.2375,-0.2348,-0.2372,-0.2372,-0.1938,-0.1935,-0.1932,-0.1529,-0.1475,-0.1422,-0.1368,-0.132,-0.1364,-0.1364,-0.1353,-0.14,-0.1652,-0.1813,-0.2203,-0.2383,-0.2558,-0.2681,-0.257,-0.2443,-0.2448,-0.2311,-0.2241,-0.2464,-0.2442,-0.2487,-0.2487,-0.2487,-0.2487,-0.2487,-0.2487,-0.1669,-0.162,-0.1583,-0.1537,-0.1521,-0.1505,-0.1472,-0.1531,-0.1582,-0.1711,-0.1875,-0.2068,-0.23,-0.252,-0.2545,-0.258,-0.2455,-0.2495,-0.2431,-0.2343,-0.2243,-0.2454,-0.2518,-0.2518,-0.2518,-0.2518,-0.2519,0,-0.1763,-0.1761,-0.1737,-0.1699,-0.1671,-0.1664,-0.1665,-0.1677,-0.1767,-0.1844,-0.1959,-0.2051,-0.2251,-0.2376,-0.2504,-0.2512,-0.2397,-0.2487,-0.2497,-0.2349,-0.2244,-0.2165,-0.236,-0.2422,-0.2422,-0.2422,-0.2422,-0.2422,-0.1855,-0.1837,-0.1841,-0.1819,-0.1817,-0.181,-0.1793,-0.1862,-0.1875,-0.2004,-0.2009,-0.2134,-0.221,-0.235,-0.2432,-0.2513,-0.2408,-0.248,-0.2429,-0.2434,-0.2376,-0.2281,-0.2209,-0.2419,-0.242,-0.242,-0.242,0,-0.1894,-0.1916,-0.1899,-0.192,-0.1921,-0.1905,-0.1927,-0.1925,-0.1998,-0.2024,-0.2038,-0.2147,-0.223,-0.2298,-0.2355,-0.2364,-0.2367,-0.2421,-0.2388,-0.239,-0.2415,-0.2358,-0.232,-0.2241,-0.2472,-0.2473,-0.2474,0,-0.1961,-0.195,-0.1975,-0.1964,-0.1951,-0.1987,-0.1984,-0.2011,-0.2058,-0.2072,-0.2139,-0.2168,-0.2215,-0.2266,-0.2278,-0.2329,-0.2332,-0.2328,-0.2335,-0.2302,-0.23,-0.2321,-0.2265,-0.2314,-0.2313,-0.2313,-0.2312,0,-0.1999,-0.201,-0.2,-0.2003,-0.2025,-0.2025,-0.2036,-0.2074,-0.2084,-0.2133,-0.2153,-0.2193,-0.2202,-0.2229,-0.2248,-0.2226,-0.2304,-0.2276,-0.2308,-0.231,-0.2305,-0.2304,-0.2352,-0.2311,-0.2311,-0.2311,-0.2311,0,-0.2044,-0.2047,-0.2038,-0.2052,-0.2053,-0.2053,-0.2074,-0.2084,-0.2125,-0.2134,-0.2159,-0.217,-0.219,-0.2166,-0.2208,-0.2187,-0.2193,-0.2201,-0.2204,-0.2232,-0.222,-0.2253,-0.2284,-0.2291,-0.2231,-0.223,-0.2229,0,-0.2074,-0.2068,-0.208,-0.2074,-0.207,-0.209,-0.2098,-0.2112,-0.2123,-0.2139,-0.2145,-0.2146,-0.2128,-0.2121,-0.2134,-0.2141,-0.216,-0.2125,-0.2186,-0.2188,-0.2205,-0.2235,-0.2206,-0.227,-0.2218,-0.2219,-0.222,0,-0.209,-0.21,-0.2095,-0.2093,-0.2105,-0.2103,-0.2114,-0.2123,-0.2129,-0.2125,-0.2134,-0.2117,-0.2118,-0.2116,-0.2107,-0.2119,-0.2143,-0.2111,-0.2113,-0.2142,-0.2199,-0.2218,-0.2227,-0.2137,-0.2138,-0.2139,-0.2212,0,-0.2117,-0.2112,-0.211,-0.2109,-0.2113,-0.211,-0.2116,-0.2119,-0.2108,-0.2106,-0.2111,-0.2099,-0.2097,-0.209,-0.2075,-0.2093,-0.2101,-0.2093,-0.2098,-0.2106,-0.2136,-0.2142,-0.2065,-0.2065,-0.2065,-0.2066,0,0,-0.2129,-0.2118,-0.2121,-0.212,-0.2118,-0.2119,-0.2116,-0.2113,-0.2102,-0.2104,-0.2094,-0.2083,-0.2074,-0.2081,-0.2076,-0.2069,-0.2086,-0.2074,-0.2096,-0.21,-0.2103,-0.2132,-0.2138,-0.2066,-0.2066,-0.2066,-0.2066,0,-0.2132,-0.2129,-0.2123,-0.2124,-0.212,-0.2116,-0.2118,-0.2106,-0.2104,-0.2091,-0.2086,-0.2084,-0.207,-0.2074,-0.2072,-0.2069,-0.2085,-0.2066,-0.2075,-0.2096,-0.2099,-0.2102,-0.2131,-0.2137,-0.2066,-0.2066,-0.2066,0,-0.2139,-0.2134,-0.2128,-0.2125,-0.2116,-0.2115,-0.2107,-0.2103,-0.2099,-0.2089,-0.208,-0.2075,-0.2071,-0.2069,-0.207,-0.2071,-0.2087,-0.2068,-0.2068,-0.208,-0.2102,-0.2105,-0.2108,-0.2072,-0.2072,-0.2072,0,0,-0.2143,-0.2137,-0.2132,-0.2124,-0.2124,-0.2108,-0.2102,-0.2099,-0.2091,-0.2087,-0.2082,-0.2077,-0.2073,-0.2074,-0.2073,-0.2066,-0.2085,-0.2069,-0.2069,-0.2068,-0.2079,-0.2102,-0.2105,-0.2072,-0.2072,-0.2072,0,0,-0.2144,-0.2135,-0.213,-0.2122,-0.2121,-0.2104,-0.2099,-0.209,-0.2082,-0.208,-0.2075,-0.2076,-0.2077,-0.2077,-0.2076,-0.2077,-0.2079,-0.2079,-0.2075,-0.2074,-0.2074,-0.2089,-0.2082,0,0,0,0,0,-0.2139,-0.2136,-0.2131,-0.2128,-0.2106,-0.2103,-0.2099,-0.2092,-0.2081,-0.2086,-0.2077,-0.2081,-0.208,-0.2079,-0.2078,-0.2079,-0.2072,-0.2072,-0.2072,-0.2066,-0.2065,-0.2065,0,0,0,0,0,0,-0.2138,-0.2135,-0.2131,-0.2115,-0.2109,-0.2102,-0.2094,-0.2091,-0.2082,-0.2083,-0.2079,-0.2081,-0.2082,-0.208,-0.2079,-0.208,-0.2083,-0.2072,-0.2072,-0.2072,-0.2065,-0.2065,-0.2065,0,0,0,0,0,-0.2137,-0.2135,-0.2105,-0.2114,-0.2109,-0.2098,-0.2094,-0.2092,-0.2085,-0.2083,-0.2084,-0.2083,-0.2081,-0.2081,-0.2079,-0.2081,-0.2084,-0.2084,-0.2072,-0.2072,-0.2072,-0.2065,0,0,0,0,0,0,-0.2136,-0.2126,-0.2104,-0.2101,-0.2125,-0.2099,-0.2096,-0.2094,-0.2085,-0.2085,-0.2087,-0.2088,-0.208,-0.208,-0.208,-0.2082,-0.2085,-0.2084,-0.2084,-0.2072,-0.2072,-0.2072,0,0,0,0,0,0,-0.2127,-0.2124,-0.2102,-0.2116,-0.2115,-0.21,-0.2097,-0.2088,-0.2086,-0.209,-0.209,-0.2088,-0.2093,-0.208,-0.208,-0.2064,-0.2086,-0.2085,-0.2085,-0.2084,-0.2072,-0.2072,0,0,0,0,0,0,-0.2125,-0.2123,-0.2117,-0.2116,-0.2115,-0.2087,-0.2092,-0.2076,-0.2079,-0.2091,-0.2081,-0.2082,-0.2093,-0.2092,-0.2079,-0.2064,-0.2064,-0.2086,-0.2085,-0.2085,-0.2085,0,0,0,0,0,0,0,-0.2124,-0.2148,-0.212,-0.2116,-0.2115,-0.208,-0.2079,-0.2078,-0.2079,-0.208,-0.2081,-0.2082,-0.2089,-0.2088,-0.2088,-0.2063,0,0,-0.2086,-0.2085,0,0,0,0,0,0,0,0,-0.2149,-0.2148,-0.212,-0.2119,-0.2119,-0.208,-0.2079,-0.2078,-0.2079,-0.208,-0.2081,-0.2082,-0.2089,-0.2088,-0.2088,0,0,0,0,0,0,0,0,0,0,0,0,0,0,0,-0.212,-0.212,0,-0.208,-0.2079,-0.2079,-0.2079,-0.208,-0.2081,-0.2081,-0.2089,-0.2088,-0.2088,0,0,0,0,0,0,0,0,0,0,0,0,0,0,0,0,0,0,0,0,0,0,0,0,0,0,0,0,0,0,0,0,0,0,0,0,0,0,0,0,0,0,0,0,0,0,0,0,0,0,0,0,0,0,0,0,0,0,0,0,0,0,0,0,0,0,0,0,0]}],[{"header":{"parameterUnit":"kt","parameterCategory":2,"dx":1,"dy":1,"la1":30.253999710083008,"la2":30.299108505249023,"lo1":-89.0895004272461,"lo2":-89.04439544677734,"nx":28,"ny":28,"refTime":"2022-10-19T09:00:00:Z","depth":"0","parameterNumber":3,"parameterNumberName":"V-component_of_CURRENTS"},"data":[-0.1112,-0.1217,-0.1287,-0.1496,-0.1568,-0.1744,-0.1827,-0.2093,-0.2341,-0.2841,-0.311,-0.3224,-0.3094,-0.2652,-0.2503,-0.2374,-0.2359,-0.2193,-0.2157,-0.2118,-0.2084,-0.2052,-0.2117,-0.2369,-0.2369,-0.2459,-0.246,-0.246,-0.1084,-0.114,-0.1227,-0.1343,-0.1458,-0.1453,-0.159,-0.1739,-0.1958,-0.2213,-0.2341,-0.247,-0.2419,-0.227,-0.2105,-0.1991,-0.1938,-0.1885,-0.1906,-0.1962,-0.1775,-0.1838,-0.2035,-0.2035,-0.2035,-0.2035,-0.2035,-0.2034,-0.1051,-0.1084,-0.113,-0.1209,-0.1272,-0.1383,-0.146,-0.1579,-0.1693,-0.1867,-0.178,-0.1955,-0.1819,-0.1661,-0.1581,-0.1533,-0.1376,-0.1523,-0.1491,-0.141,-0.1536,-0.127,-0.1359,-0.1357,-0.1355,-0.1354,-0.1352,0,-0.103,-0.1032,-0.1044,-0.112,-0.1165,-0.1215,-0.1265,-0.1319,-0.1331,-0.1389,-0.1473,-0.149,-0.1411,-0.144,-0.1287,-0.1225,-0.1175,-0.1117,-0.1205,-0.1479,-0.1418,-0.1509,-0.1227,-0.1308,-0.1305,-0.1304,-0.1302,-0.1301,-0.101,-0.1011,-0.1014,-0.1044,-0.1037,-0.1054,-0.1097,-0.1079,-0.1135,-0.1144,-0.12,-0.1171,-0.1215,-0.1137,-0.1071,-0.0999,-0.1014,-0.1063,-0.1091,-0.1172,-0.1165,-0.11,-0.1176,-0.1274,-0.1277,-0.128,-0.1283,0,-0.0999,-0.0979,-0.0982,-0.0967,-0.0968,-0.0979,-0.0998,-0.1038,-0.1013,-0.1071,-0.107,-0.1041,-0.1033,-0.0961,-0.0945,-0.09,-0.0948,-0.0884,-0.1027,-0.1054,-0.1145,-0.1132,-0.1137,-0.123,-0.0879,-0.0879,-0.0879,0,-0.0965,-0.0964,-0.0937,-0.0936,-0.0952,-0.0923,-0.095,-0.0938,-0.0945,-0.099,-0.0924,-0.0964,-0.0902,-0.0895,-0.0862,-0.0859,-0.0865,-0.0864,-0.0875,-0.1018,-0.103,-0.1138,-0.1134,-0.0874,-0.0874,-0.0874,-0.0875,0,-0.0946,-0.0924,-0.0921,-0.0914,-0.0894,-0.0895,-0.0887,-0.0881,-0.0896,-0.0878,-0.0897,-0.087,-0.0883,-0.0868,-0.085,-0.0849,-0.0858,-0.0866,-0.0872,-0.0872,-0.1027,-0.104,-0.1166,-0.0875,-0.0875,-0.0875,-0.0875,0,-0.0912,-0.0902,-0.0893,-0.0884,-0.0881,-0.0872,-0.0874,-0.0864,-0.0855,-0.085,-0.0842,-0.0838,-0.0831,-0.0826,-0.0828,-0.0831,-0.0834,-0.084,-0.0841,-0.0868,-0.0881,-0.1007,-0.104,-0.1144,-0.0833,-0.0833,-0.0833,0,-0.0905,-0.0891,-0.087,-0.0862,-0.0855,-0.0832,-0.0828,-0.0813,-0.0803,-0.0803,-0.0795,-0.0809,-0.0788,-0.0805,-0.0806,-0.083,-0.0828,-0.0827,-0.0863,-0.0863,-0.0873,-0.0873,-0.1039,-0.1031,-0.0832,-0.0832,-0.0832,0,-0.09,-0.0866,-0.0865,-0.0862,-0.0829,-0.0819,-0.0805,-0.079,-0.0797,-0.0769,-0.0779,-0.0787,-0.0786,-0.0803,-0.0816,-0.0826,-0.0823,-0.084,-0.0842,-0.082,-0.0853,-0.0868,-0.087,-0.0858,-0.0859,-0.0859,-0.0831,0,-0.0882,-0.0869,-0.0862,-0.0841,-0.0827,-0.0811,-0.0787,-0.0777,-0.0766,-0.0756,-0.0767,-0.0783,-0.0806,-0.0804,-0.0821,-0.0834,-0.0833,-0.0858,-0.0865,-0.0864,-0.085,-0.085,-0.0852,-0.0852,-0.0853,-0.0853,0,0,-0.0888,-0.0871,-0.085,-0.0838,-0.0827,-0.08,-0.0792,-0.0777,-0.0765,-0.0769,-0.0768,-0.0798,-0.0814,-0.0842,-0.084,-0.085,-0.0857,-0.0844,-0.0863,-0.0864,-0.0865,-0.0852,-0.0852,-0.0854,-0.0854,-0.0854,-0.0854,0,-0.0881,-0.0864,-0.0856,-0.0839,-0.0813,-0.0799,-0.0793,-0.0767,-0.0765,-0.0765,-0.0789,-0.0805,-0.0822,-0.0842,-0.0857,-0.0855,-0.0861,-0.0856,-0.0841,-0.0866,-0.0866,-0.0867,-0.0854,-0.0853,-0.0855,-0.0855,-0.0855,0,-0.0881,-0.0864,-0.0857,-0.0827,-0.0812,-0.0798,-0.0793,-0.0775,-0.0768,-0.0795,-0.0799,-0.0816,-0.0846,-0.0858,-0.0866,-0.087,-0.087,-0.0869,-0.0868,-0.0866,-0.0892,-0.0892,-0.0893,-0.0889,-0.0889,-0.0888,0,0,-0.0879,-0.0867,-0.0838,-0.0824,-0.0813,-0.0794,-0.0784,-0.078,-0.0784,-0.079,-0.0801,-0.0823,-0.0844,-0.0856,-0.0871,-0.0877,-0.0885,-0.0872,-0.087,-0.0869,-0.0866,-0.0892,-0.0892,-0.0888,-0.0888,-0.0888,0,0,-0.088,-0.0851,-0.0846,-0.0828,-0.0808,-0.0785,-0.0779,-0.0773,-0.0788,-0.0798,-0.0819,-0.0827,-0.0845,-0.0857,-0.0854,-0.0865,-0.0874,-0.0875,-0.0852,-0.085,-0.0849,-0.0841,-0.0862,0,0,0,0,0,-0.086,-0.0851,-0.0846,-0.084,-0.0807,-0.0781,-0.0778,-0.0777,-0.0783,-0.0781,-0.0809,-0.0814,-0.0865,-0.0863,-0.0866,-0.0855,-0.0886,-0.0887,-0.0887,-0.0859,-0.0857,-0.0855,0,0,0,0,0,0,-0.0858,-0.085,-0.0846,-0.0821,-0.0814,-0.0782,-0.0794,-0.0794,-0.0784,-0.0787,-0.0808,-0.0814,-0.0831,-0.0862,-0.0864,-0.0853,-0.0861,-0.0886,-0.0887,-0.0887,-0.0858,-0.0856,-0.0855,0,0,0,0,0,-0.0855,-0.0849,-0.0801,-0.0822,-0.0815,-0.0806,-0.0796,-0.0795,-0.0793,-0.0808,-0.0813,-0.0794,-0.083,-0.0834,-0.0863,-0.0852,-0.086,-0.086,-0.0887,-0.0887,-0.0887,-0.0857,0,0,0,0,0,0,-0.0854,-0.0853,-0.0799,-0.0797,-0.0834,-0.0808,-0.0806,-0.0797,-0.0816,-0.0819,-0.0796,-0.0798,-0.0828,-0.0832,-0.0836,-0.0851,-0.0858,-0.0859,-0.086,-0.0887,-0.0887,-0.0887,0,0,0,0,0,0,-0.0855,-0.0851,-0.0798,-0.0813,-0.0813,-0.0811,-0.0808,-0.0813,-0.0818,-0.0805,-0.0806,-0.0797,-0.0838,-0.0831,-0.0833,-0.084,-0.0857,-0.0858,-0.0859,-0.0859,-0.0887,-0.0887,0,0,0,0,0,0,-0.0853,-0.0849,-0.0814,-0.0814,-0.0813,-0.0788,-0.0818,-0.0796,-0.0795,-0.0805,-0.0799,-0.08,-0.0837,-0.0839,-0.0832,-0.0837,-0.0839,-0.0857,-0.0858,-0.0858,-0.0859,0,0,0,0,0,0,0,-0.0851,-0.0881,-0.081,-0.0814,-0.0814,-0.0773,-0.0772,-0.0772,-0.0796,-0.0797,-0.0798,-0.0799,-0.0852,-0.0853,-0.0854,-0.0834,0,0,-0.0857,-0.0858,0,0,0,0,0,0,0,0,-0.0883,-0.0882,-0.081,-0.0809,-0.0809,-0.0773,-0.0772,-0.0772,-0.0796,-0.0797,-0.0798,-0.0799,-0.0853,-0.0853,-0.0854,0,0,0,0,0,0,0,0,0,0,0,0,0,0,0,-0.081,-0.0809,0,-0.0773,-0.0772,-0.0772,-0.0796,-0.0797,-0.0798,-0.0798,-0.0853,-0.0853,-0.0854,0,0,0,0,0,0,0,0,0,0,0,0,0,0,0,0,0,0,0,0,0,0,0,0,0,0,0,0,0,0,0,0,0,0,0,0,0,0,0,0,0,0,0,0,0,0,0,0,0,0,0,0,0,0,0,0,0,0,0,0,0,0,0,0,0,0,0,0,0]}]],[[{"header":{"parameterUnit":"kt","parameterCategory":2,"dx":1,"dy":1,"la1":30.253999710083008,"la2":30.299108505249023,"lo1":-89.0895004272461,"lo2":-89.04439544677734,"nx":28,"ny":28,"refTime":"2022-10-19T09:00:00:Z","depth":"2","parameterNumber":2,"parameterNumberName":"U-component_of_CURRENTS"},"data":[-0.1443,-0.1336,-0.1304,-0.1178,-0.1155,-0.1092,-0.108,-0.1139,-0.1249,-0.1396,-0.1511,-0.1749,-0.1841,-0.1647,-0.1635,-0.1538,-0.1572,-0.1468,-0.1981,-0.1843,-0.186,-0.1919,-0.1834,0,0,0,0,0,-0.1527,-0.1475,-0.1423,-0.137,-0.1322,-0.1367,-0.1367,-0.1359,-0.1407,-0.1601,-0.1742,-0.1741,-0.1805,-0.188,-0.1828,-0.1867,-0.1778,-0.1785,-0.1648,-0.1672,-0.1693,-0.1617,-0.1462,-0.1459,-0.1457,-0.1456,0,0,-0.1667,-0.1619,-0.1583,-0.1538,-0.1522,-0.1507,-0.1475,-0.1535,-0.1585,-0.1708,-0.1856,-0.197,-0.2059,-0.2167,-0.2138,-0.2113,-0.2256,-0.2154,-0.2156,-0.2161,-0.2116,-0.2092,-0.2089,-0.2092,-0.2094,-0.2096,-0.2097,0,-0.176,-0.1759,-0.1735,-0.1699,-0.1672,-0.1665,-0.1667,-0.1679,-0.1769,-0.1846,-0.196,-0.2048,-0.2204,-0.2228,-0.2338,-0.2331,-0.2294,-0.2274,-0.2497,-0.2053,-0.2023,-0.2019,-0.2023,-0.2017,-0.2019,-0.2021,-0.2022,-0.2022,-0.1853,-0.1835,-0.184,-0.1818,-0.1816,-0.181,-0.1794,-0.1863,-0.1876,-0.2005,-0.201,-0.2135,-0.2208,-0.2349,-0.2386,-0.2455,-0.2469,-0.2315,-0.2244,-0.2418,-0.2416,-0.2408,-0.2401,-0.2045,-0.2042,-0.204,-0.2038,0,-0.1891,-0.1914,-0.1897,-0.1918,-0.192,-0.1905,-0.1927,-0.1926,-0.1999,-0.2026,-0.204,-0.2149,-0.2233,-0.2302,-0.2361,-0.2371,-0.2416,-0.2429,-0.2233,-0.2217,-0.2398,-0.2392,-0.2474,-0.2475,-0.2477,-0.2477,-0.2478,0,-0.1959,-0.1948,-0.1973,-0.1962,-0.195,-0.1986,-0.1984,-0.2011,-0.2059,-0.2074,-0.2142,-0.2171,-0.222,-0.2272,-0.2286,-0.2337,-0.2341,-0.2337,-0.2344,-0.2171,-0.2158,-0.2291,-0.2286,-0.2327,-0.2326,-0.2326,-0.2325,0,-0.1997,-0.2008,-0.1998,-0.2001,-0.2025,-0.2025,-0.2036,-0.2075,-0.2086,-0.2136,-0.2155,-0.2197,-0.2207,-0.2236,-0.2256,-0.2235,-0.2314,-0.2287,-0.2318,-0.2319,-0.2178,-0.2166,-0.2324,-0.2324,-0.2324,-0.2324,-0.2324,0,-0.2042,-0.2045,-0.2037,-0.2051,-0.2052,-0.2053,-0.2075,-0.2085,-0.2127,-0.2137,-0.2162,-0.2175,-0.2196,-0.2173,-0.2217,-0.2195,-0.2203,-0.2212,-0.2215,-0.2241,-0.2229,-0.2115,-0.211,-0.2242,-0.2241,-0.224,-0.2239,0,-0.2072,-0.2066,-0.2079,-0.2073,-0.2069,-0.209,-0.2098,-0.2113,-0.2125,-0.2142,-0.2149,-0.2151,-0.2134,-0.2128,-0.2142,-0.2151,-0.217,-0.2135,-0.2198,-0.22,-0.2215,-0.2244,-0.2055,-0.2103,-0.2228,-0.223,-0.223,0,-0.2088,-0.2098,-0.2094,-0.2092,-0.2104,-0.2103,-0.2114,-0.2124,-0.2131,-0.2127,-0.2137,-0.2123,-0.2125,-0.2124,-0.2117,-0.2129,-0.2153,-0.2122,-0.2124,-0.2152,-0.221,-0.2227,-0.2236,-0.2149,-0.2151,-0.2151,-0.2222,0,-0.2115,-0.211,-0.2109,-0.2108,-0.2113,-0.211,-0.2117,-0.212,-0.2109,-0.2109,-0.2115,-0.2105,-0.2105,-0.2098,-0.2085,-0.2104,-0.2111,-0.2105,-0.211,-0.2118,-0.2147,-0.2154,-0.2077,-0.2077,-0.2077,-0.2077,0,0,-0.2126,-0.2116,-0.212,-0.2119,-0.2117,-0.2119,-0.2116,-0.2114,-0.2105,-0.2107,-0.2098,-0.209,-0.2083,-0.2092,-0.2087,-0.2081,-0.2098,-0.2085,-0.2109,-0.2112,-0.2115,-0.2143,-0.215,-0.2077,-0.2077,-0.2078,-0.2078,0,-0.213,-0.2127,-0.2121,-0.2123,-0.212,-0.2117,-0.2118,-0.2108,-0.2106,-0.2095,-0.2091,-0.2091,-0.2078,-0.2085,-0.2083,-0.208,-0.2097,-0.2078,-0.2086,-0.2109,-0.2112,-0.2115,-0.2143,-0.2148,-0.2078,-0.2078,-0.2078,0,-0.2137,-0.2132,-0.2127,-0.2124,-0.2116,-0.2115,-0.2108,-0.2104,-0.2101,-0.2093,-0.2085,-0.2082,-0.208,-0.208,-0.2081,-0.2082,-0.21,-0.2081,-0.2081,-0.2092,-0.2116,-0.2119,-0.2122,-0.2086,-0.2086,-0.2086,0,0,-0.2141,-0.2135,-0.2131,-0.2123,-0.2124,-0.2109,-0.2103,-0.2101,-0.2094,-0.2091,-0.2087,-0.2084,-0.2082,-0.2084,-0.2084,-0.2079,-0.2098,-0.2081,-0.2081,-0.2081,-0.2092,-0.2115,-0.2118,-0.2086,-0.2086,-0.2086,0,0,-0.2142,-0.2133,-0.2129,-0.2122,-0.2121,-0.2106,-0.2101,-0.2093,-0.2086,-0.2084,-0.2081,-0.2082,-0.2086,-0.2086,-0.2085,-0.2088,-0.209,-0.209,-0.2085,-0.2084,-0.2084,-0.2097,-0.2092,0,0,0,0,0,-0.2137,-0.2134,-0.213,-0.2127,-0.2106,-0.2104,-0.21,-0.2095,-0.2084,-0.2089,-0.2081,-0.2086,-0.209,-0.2089,-0.2087,-0.2088,-0.2085,-0.2085,-0.2085,-0.2077,-0.2077,-0.2076,0,0,0,0,0,0,-0.2136,-0.2134,-0.213,-0.2114,-0.2109,-0.2103,-0.2095,-0.2093,-0.2085,-0.2086,-0.2084,-0.2086,-0.2088,-0.2089,-0.2088,-0.2089,-0.2092,-0.2085,-0.2085,-0.2085,-0.2077,-0.2077,-0.2076,0,0,0,0,0,-0.2135,-0.2133,-0.2106,-0.2114,-0.2109,-0.2099,-0.2096,-0.2094,-0.2087,-0.2088,-0.2089,-0.2086,-0.2088,-0.2088,-0.2089,-0.209,-0.2093,-0.2093,-0.2085,-0.2085,-0.2085,-0.2077,0,0,0,0,0,0,-0.2135,-0.2125,-0.2104,-0.2102,-0.2124,-0.21,-0.2098,-0.2096,-0.209,-0.209,-0.209,-0.2091,-0.2087,-0.2087,-0.2087,-0.209,-0.2094,-0.2093,-0.2093,-0.2085,-0.2085,-0.2085,0,0,0,0,0,0,-0.2126,-0.2123,-0.2103,-0.2117,-0.2116,-0.2101,-0.2099,-0.2092,-0.2091,-0.2093,-0.2093,-0.2091,-0.2099,-0.2086,-0.2087,-0.2074,-0.2094,-0.2094,-0.2094,-0.2093,-0.2085,-0.2085,0,0,0,0,0,0,-0.2124,-0.2122,-0.2117,-0.2116,-0.2116,-0.2089,-0.2095,-0.2081,-0.2082,-0.2094,-0.2085,-0.2086,-0.2099,-0.2098,-0.2086,-0.2073,-0.2073,-0.2094,-0.2094,-0.2094,-0.2094,0,0,0,0,0,0,0,-0.2123,-0.2146,-0.2119,-0.2116,-0.2116,-0.2082,-0.2081,-0.208,-0.2083,-0.2084,-0.2085,-0.2086,-0.2097,-0.2096,-0.2096,-0.2072,0,0,-0.2094,-0.2094,0,0,0,0,0,0,0,0,-0.2146,-0.2146,-0.2119,-0.2119,-0.2118,-0.2082,-0.2081,-0.2081,-0.2083,-0.2084,-0.2084,-0.2085,-0.2097,-0.2096,-0.2096,0,0,0,0,0,0,0,0,0,0,0,0,0,0,0,-0.2119,-0.2119,0,-0.2082,-0.2081,-0.2081,-0.2083,-0.2084,-0.2084,-0.2085,-0.2097,-0.2096,-0.2096,0,0,0,0,0,0,0,0,0,0,0,0,0,0,0,0,0,0,0,0,0,0,0,0,0,0,0,0,0,0,0,0,0,0,0,0,0,0,0,0,0,0,0,0,0,0,0,0,0,0,0,0,0,0,0,0,0,0,0,0,0,0,0,0,0,0,0,0,0]}],[{"header":{"parameterUnit":"kt","parameterCategory":2,"dx":1,"dy":1,"la1":30.253999710083008,"la2":30.299108505249023,"lo1":-89.0895004272461,"lo2":-89.04439544677734,"nx":28,"ny":28,"refTime":"2022-10-19T09:00:00:Z","depth":"2","parameterNumber":3,"parameterNumberName":"V-component_of_CURRENTS"},"data":[-0.0946,-0.1025,-0.1095,-0.1254,-0.1373,-0.1397,-0.1473,-0.1405,-0.1314,-0.1203,-0.1086,-0.0917,-0.0773,-0.0472,-0.0307,-0.0175,-0.0224,-0.0145,-0.0457,-0.0387,-0.0406,-0.0313,-0.0294,0,0,0,0,0,-0.0933,-0.1039,-0.1126,-0.1241,-0.1279,-0.1351,-0.1486,-0.1439,-0.1469,-0.1418,-0.1374,-0.1057,-0.083,-0.0654,-0.0318,-0.0232,-0.0165,-0.026,-0.0173,-0.0191,-0.0207,-0.0183,-0.003,-0.003,-0.003,-0.0029,0,0,-0.0952,-0.0984,-0.103,-0.1109,-0.1171,-0.128,-0.1356,-0.1353,-0.1429,-0.1402,-0.1451,-0.1327,-0.1126,-0.0759,-0.0635,-0.046,-0.053,-0.0491,-0.0494,-0.05,-0.0493,-0.0459,-0.0422,-0.0424,-0.0425,-0.0427,-0.0428,0,-0.0931,-0.0933,-0.0945,-0.102,-0.1065,-0.1113,-0.1162,-0.1215,-0.1227,-0.126,-0.1343,-0.1343,-0.1173,-0.0981,-0.0789,-0.0716,-0.0626,-0.0595,-0.0785,-0.0479,-0.0438,-0.0445,-0.0453,-0.0403,-0.0405,-0.0406,-0.0407,-0.0408,-0.0911,-0.0912,-0.0915,-0.0944,-0.0938,-0.0955,-0.0997,-0.0979,-0.1034,-0.1042,-0.1097,-0.1069,-0.1095,-0.1018,-0.0845,-0.0745,-0.083,-0.0634,-0.0618,-0.0762,-0.0769,-0.0768,-0.0767,-0.0428,-0.0426,-0.0424,-0.0422,0,-0.09,-0.088,-0.0883,-0.0867,-0.0868,-0.088,-0.0898,-0.0938,-0.0913,-0.097,-0.097,-0.0941,-0.0933,-0.0862,-0.0846,-0.0801,-0.0782,-0.0784,-0.0611,-0.0602,-0.0765,-0.0764,-0.0778,-0.0778,-0.0779,-0.0779,-0.0779,0,-0.0865,-0.0864,-0.0837,-0.0836,-0.0853,-0.0824,-0.0851,-0.0839,-0.0846,-0.089,-0.0826,-0.0864,-0.0804,-0.0797,-0.0764,-0.076,-0.0766,-0.0764,-0.0773,-0.0641,-0.063,-0.0775,-0.0775,-0.0774,-0.0774,-0.0774,-0.0774,0,-0.0844,-0.0823,-0.0821,-0.0813,-0.0793,-0.0795,-0.0787,-0.0781,-0.0795,-0.0779,-0.0798,-0.0772,-0.0784,-0.0769,-0.0751,-0.075,-0.0759,-0.0765,-0.0771,-0.077,-0.0656,-0.0646,-0.0775,-0.0775,-0.0775,-0.0775,-0.0775,0,-0.081,-0.08,-0.0792,-0.0782,-0.0779,-0.0771,-0.0773,-0.0763,-0.0754,-0.075,-0.0743,-0.0738,-0.0731,-0.0726,-0.0728,-0.073,-0.0733,-0.0739,-0.0739,-0.0765,-0.0777,-0.0616,-0.0582,-0.0731,-0.0731,-0.073,-0.073,0,-0.0802,-0.0788,-0.0767,-0.076,-0.0752,-0.0729,-0.0725,-0.0711,-0.0701,-0.0702,-0.0693,-0.0707,-0.0686,-0.0703,-0.0704,-0.0727,-0.0725,-0.0724,-0.076,-0.076,-0.0769,-0.077,-0.062,-0.0586,-0.0729,-0.0729,-0.0729,0,-0.0796,-0.0761,-0.0761,-0.0757,-0.0725,-0.0715,-0.0701,-0.0686,-0.0694,-0.0667,-0.0677,-0.0684,-0.0684,-0.07,-0.0712,-0.0722,-0.072,-0.0735,-0.0737,-0.0716,-0.075,-0.0765,-0.0766,-0.0754,-0.0755,-0.0755,-0.0728,0,-0.0776,-0.0764,-0.0757,-0.0736,-0.0722,-0.0707,-0.0682,-0.0673,-0.0662,-0.0652,-0.0663,-0.0678,-0.0701,-0.0699,-0.0715,-0.0729,-0.0727,-0.0751,-0.0758,-0.0758,-0.0744,-0.0745,-0.0744,-0.0745,-0.0745,-0.0745,0,0,-0.0782,-0.0765,-0.0743,-0.0731,-0.072,-0.0694,-0.0685,-0.067,-0.0659,-0.0663,-0.0662,-0.0691,-0.0707,-0.0734,-0.0732,-0.0742,-0.0749,-0.0737,-0.0757,-0.0758,-0.0759,-0.0746,-0.0746,-0.0746,-0.0746,-0.0746,-0.0746,0,-0.0774,-0.0757,-0.075,-0.0732,-0.0706,-0.0691,-0.0686,-0.066,-0.0658,-0.0658,-0.0681,-0.0697,-0.0714,-0.0734,-0.0748,-0.0747,-0.0753,-0.0748,-0.0735,-0.0759,-0.076,-0.076,-0.0748,-0.0748,-0.0747,-0.0747,-0.0747,0,-0.0773,-0.0755,-0.0748,-0.0718,-0.0703,-0.0688,-0.0683,-0.0665,-0.0659,-0.0685,-0.0689,-0.0706,-0.0735,-0.0747,-0.0756,-0.076,-0.0761,-0.076,-0.0759,-0.0757,-0.0783,-0.0784,-0.0784,-0.0778,-0.0778,-0.0778,0,0,-0.077,-0.0759,-0.0728,-0.0715,-0.0704,-0.0684,-0.0674,-0.0669,-0.0673,-0.068,-0.0691,-0.0712,-0.0733,-0.0745,-0.0761,-0.0767,-0.0775,-0.0762,-0.0761,-0.076,-0.0758,-0.0783,-0.0783,-0.0778,-0.0778,-0.0778,0,0,-0.077,-0.0741,-0.0736,-0.0718,-0.0697,-0.0673,-0.0668,-0.0662,-0.0677,-0.0687,-0.0707,-0.0715,-0.0734,-0.0746,-0.0743,-0.0755,-0.0763,-0.0764,-0.0742,-0.074,-0.0739,-0.0732,-0.075,0,0,0,0,0,-0.075,-0.0741,-0.0736,-0.0729,-0.0696,-0.067,-0.0666,-0.0665,-0.0671,-0.0669,-0.0697,-0.0702,-0.0754,-0.0751,-0.0754,-0.0744,-0.0776,-0.0776,-0.0776,-0.075,-0.0748,-0.0746,0,0,0,0,0,0,-0.0747,-0.0739,-0.0736,-0.071,-0.0702,-0.067,-0.0682,-0.0681,-0.0672,-0.0675,-0.0696,-0.0702,-0.0718,-0.075,-0.0753,-0.0742,-0.0749,-0.0776,-0.0776,-0.0776,-0.0749,-0.0747,-0.0746,0,0,0,0,0,-0.0745,-0.0739,-0.0689,-0.071,-0.0703,-0.0693,-0.0683,-0.0683,-0.0681,-0.0695,-0.07,-0.0682,-0.0717,-0.0722,-0.0752,-0.0741,-0.0748,-0.0749,-0.0776,-0.0776,-0.0776,-0.0748,0,0,0,0,0,0,-0.0743,-0.0741,-0.0687,-0.0685,-0.0723,-0.0696,-0.0693,-0.0684,-0.0703,-0.0706,-0.0682,-0.0685,-0.0716,-0.072,-0.0723,-0.074,-0.0746,-0.0747,-0.0748,-0.0776,-0.0776,-0.0776,0,0,0,0,0,0,-0.0744,-0.0739,-0.0686,-0.0702,-0.0701,-0.0698,-0.0696,-0.0701,-0.0705,-0.0691,-0.0692,-0.0683,-0.0726,-0.0718,-0.0721,-0.0728,-0.0745,-0.0746,-0.0747,-0.0747,-0.0776,-0.0776,0,0,0,0,0,0,-0.0742,-0.0737,-0.0703,-0.0702,-0.0702,-0.0675,-0.0705,-0.0684,-0.0681,-0.0692,-0.0685,-0.0686,-0.0725,-0.0727,-0.0719,-0.0724,-0.0727,-0.0745,-0.0746,-0.0746,-0.0747,0,0,0,0,0,0,0,-0.074,-0.0771,-0.0699,-0.0703,-0.0702,-0.066,-0.0659,-0.0659,-0.0682,-0.0683,-0.0684,-0.0686,-0.074,-0.0741,-0.0742,-0.0722,0,0,-0.0745,-0.0746,0,0,0,0,0,0,0,0,-0.0772,-0.0771,-0.0699,-0.0698,-0.0698,-0.066,-0.0659,-0.0659,-0.0682,-0.0683,-0.0684,-0.0685,-0.074,-0.0741,-0.0742,0,0,0,0,0,0,0,0,0,0,0,0,0,0,0,-0.0699,-0.0698,0,-0.066,-0.0659,-0.0659,-0.0682,-0.0683,-0.0684,-0.0685,-0.0741,-0.0741,-0.0742,0,0,0,0,0,0,0,0,0,0,0,0,0,0,0,0,0,0,0,0,0,0,0,0,0,0,0,0,0,0,0,0,0,0,0,0,0,0,0,0,0,0,0,0,0,0,0,0,0,0,0,0,0,0,0,0,0,0,0,0,0,0,0,0,0,0,0,0,0]}]],[[{"header":{"parameterUnit":"kt","parameterCategory":2,"dx":1,"dy":1,"la1":30.253999710083008,"la2":30.299108505249023,"lo1":-89.0895004272461,"lo2":-89.04439544677734,"nx":28,"ny":28,"refTime":"2022-10-19T09:00:00:Z","depth":"4","parameterNumber":2,"parameterNumberName":"U-component_of_CURRENTS"},"data":[-0.1086,-0.1051,-0.1014,-0.0877,-0.083,-0.0793,-0.0781,-0.0873,-0.0879,-0.1088,-0.1165,-0.1385,-0.1525,-0.1578,-0.1677,-0.1712,-0.1713,-0.1993,-0.199,-0.2056,-0.2068,-0.2078,-0.2032,0,0,0,0,0,-0.1163,-0.1103,-0.107,-0.1032,-0.1039,-0.1021,-0.1037,-0.1085,-0.1241,-0.1233,-0.1341,-0.1439,-0.1573,-0.1683,-0.1684,-0.1848,-0.1948,-0.1842,-0.1886,-0.2063,-0.2076,-0.2027,0,0,0,0,0,0,-0.126,-0.1239,-0.1244,-0.1213,-0.122,-0.1139,-0.1178,-0.1192,-0.1233,-0.1427,-0.1461,-0.164,-0.1812,-0.1875,-0.194,-0.1974,-0.1967,-0.1913,-0.1933,-0.1946,-0.1882,-0.1778,-0.1697,0,0,0,0,0,-0.1335,-0.1372,-0.1386,-0.1371,-0.1373,-0.1367,-0.1384,-0.1378,-0.1484,-0.1631,-0.1683,-0.1763,-0.1855,-0.1948,-0.2011,-0.2065,-0.2184,-0.2164,-0.2171,-0.2159,-0.2101,-0.2105,-0.2106,-0.2123,-0.2125,-0.2126,-0.2126,0,-0.1424,-0.1429,-0.1498,-0.1493,-0.1519,-0.1548,-0.155,-0.1645,-0.1652,-0.1798,-0.1789,-0.1915,-0.1985,-0.2023,-0.2148,-0.2211,-0.2215,-0.2197,-0.2184,-0.212,-0.2122,-0.212,-0.2118,-0.2136,-0.2136,-0.2135,-0.2134,0,-0.1465,-0.1519,-0.154,-0.1608,-0.1626,-0.1633,-0.1694,-0.1703,-0.1794,-0.1834,-0.1854,-0.1972,-0.2049,-0.2142,-0.2247,-0.2222,-0.2263,-0.2255,-0.2311,-0.2318,-0.214,-0.2134,-0.2153,-0.2149,-0.2146,-0.2143,-0.2141,0,-0.1542,-0.1559,-0.1631,-0.1637,-0.1656,-0.1712,-0.1742,-0.1788,-0.1858,-0.1884,-0.1973,-0.2007,-0.2114,-0.2177,-0.2218,-0.2228,-0.2307,-0.222,-0.2223,-0.231,-0.2303,-0.2333,-0.2328,-0.2371,-0.2371,-0.2371,-0.2371,0,-0.1584,-0.1635,-0.1654,-0.167,-0.1732,-0.1752,-0.1784,-0.1853,-0.188,-0.1958,-0.1985,-0.2061,-0.2092,-0.2157,-0.2205,-0.22,-0.2295,-0.2302,-0.2228,-0.2219,-0.233,-0.2326,-0.2371,-0.2371,-0.2371,-0.2371,-0.2371,0,-0.1639,-0.1662,-0.1688,-0.1734,-0.1744,-0.1768,-0.1824,-0.1856,-0.1929,-0.1957,-0.2008,-0.2048,-0.2096,-0.2098,-0.2181,-0.216,-0.2189,-0.222,-0.2223,-0.2139,-0.2128,-0.2156,-0.2226,-0.2224,-0.2224,-0.2223,-0.2222,0,-0.1659,-0.1686,-0.1715,-0.1743,-0.1756,-0.1801,-0.1834,-0.1876,-0.1914,-0.1956,-0.1998,-0.2043,-0.2043,-0.2058,-0.2094,-0.2147,-0.2168,-0.2136,-0.2225,-0.2226,-0.2081,-0.2122,-0.2193,-0.2209,-0.221,-0.2211,-0.2212,0,-0.1664,-0.1714,-0.1718,-0.1732,-0.1778,-0.179,-0.1832,-0.187,-0.1896,-0.1933,-0.1966,-0.202,-0.2035,-0.2063,-0.2084,-0.2115,-0.2145,-0.2124,-0.2127,-0.208,-0.2231,-0.2118,-0.2115,-0.2184,-0.2185,-0.2187,-0.2203,0,-0.1687,-0.1709,-0.172,-0.1747,-0.177,-0.1789,-0.1819,-0.1848,-0.1868,-0.1884,-0.1947,-0.197,-0.2016,-0.2047,-0.2038,-0.2108,-0.2102,-0.2129,-0.2085,-0.2142,-0.2143,-0.215,-0.2075,-0.2075,-0.2076,-0.2076,0,0,-0.1682,-0.1695,-0.1717,-0.1732,-0.1748,-0.1776,-0.1791,-0.1811,-0.1837,-0.1852,-0.1855,-0.1938,-0.1958,-0.2009,-0.2032,-0.2053,-0.2071,-0.2023,-0.2128,-0.2133,-0.2139,-0.2141,-0.2147,-0.2077,-0.2077,-0.2077,-0.2077,0,-0.1674,-0.1697,-0.1709,-0.1727,-0.1755,-0.1764,-0.1778,-0.1797,-0.1815,-0.1835,-0.1861,-0.1899,-0.1936,-0.1966,-0.1985,-0.2049,-0.2049,-0.2091,-0.2075,-0.2129,-0.2134,-0.2139,-0.2142,-0.2147,-0.2078,-0.2078,-0.2078,0,-0.1667,-0.1679,-0.1689,-0.1714,-0.1727,-0.1744,-0.1747,-0.1772,-0.179,-0.1783,-0.1814,-0.1844,-0.1881,-0.192,-0.1946,-0.1928,-0.2011,-0.199,-0.1992,-0.1987,-0.2042,-0.2049,-0.2055,-0.1966,-0.1965,-0.1964,0,0,-0.1661,-0.1677,-0.1695,-0.1713,-0.1724,-0.1736,-0.1748,-0.1761,-0.1774,-0.1784,-0.1795,-0.1828,-0.1864,-0.1872,-0.191,-0.1926,-0.1941,-0.197,-0.1976,-0.198,-0.1976,-0.2033,-0.2041,-0.1961,-0.1961,-0.196,0,0,-0.1656,-0.1674,-0.1684,-0.1703,-0.1723,-0.1728,-0.1745,-0.1753,-0.1771,-0.1778,-0.1779,-0.1783,-0.1834,-0.1847,-0.1796,-0.1903,-0.1893,-0.1902,-0.1853,-0.186,-0.1866,-0.1848,-0.1787,0,0,0,0,0,-0.1656,-0.1669,-0.1678,-0.1683,-0.1702,-0.1719,-0.1722,-0.1742,-0.1748,-0.1766,-0.1775,-0.1773,-0.1842,-0.1795,-0.1795,-0.1825,-0.1912,-0.1921,-0.1929,-0.1875,-0.1882,-0.1889,0,0,0,0,0,0,-0.1658,-0.1663,-0.1677,-0.1681,-0.1686,-0.1718,-0.1717,-0.1722,-0.1748,-0.1753,-0.1769,-0.1772,-0.1769,-0.1794,-0.1794,-0.1824,-0.1787,-0.1915,-0.1923,-0.1929,-0.1877,-0.1883,-0.1889,0,0,0,0,0,-0.166,-0.1664,-0.1694,-0.1681,-0.1685,-0.1712,-0.1718,-0.1722,-0.1745,-0.1749,-0.1753,-0.1766,-0.1768,-0.177,-0.1794,-0.1824,-0.1787,-0.1787,-0.192,-0.1926,-0.1931,-0.188,0,0,0,0,0,0,-0.1661,-0.1657,-0.1695,-0.1696,-0.1694,-0.1712,-0.1716,-0.1722,-0.174,-0.1745,-0.1744,-0.1746,-0.1767,-0.1769,-0.177,-0.1826,-0.1787,-0.1787,-0.1787,-0.1925,-0.1929,-0.1933,0,0,0,0,0,0,-0.1656,-0.1659,-0.1695,-0.1711,-0.1714,-0.1711,-0.1716,-0.1712,-0.174,-0.1733,-0.1737,-0.1745,-0.1772,-0.1767,-0.1769,-0.1761,-0.1787,-0.1787,-0.1787,-0.1787,-0.1928,-0.1932,0,0,0,0,0,0,-0.1657,-0.166,-0.171,-0.1713,-0.1716,-0.1732,-0.1708,-0.173,-0.1747,-0.1732,-0.1751,-0.1752,-0.1771,-0.1772,-0.1768,-0.1759,-0.1761,-0.1787,-0.1787,-0.1787,-0.1787,0,0,0,0,0,0,0,-0.1658,-0.164,-0.169,-0.1714,-0.1717,-0.1713,-0.1713,-0.1713,-0.1747,-0.1749,-0.175,-0.1752,-0.1786,-0.1786,-0.1786,-0.1758,0,0,-0.1787,-0.1787,0,0,0,0,0,0,0,0,-0.164,-0.164,-0.169,-0.1691,-0.1692,-0.1713,-0.1713,-0.1713,-0.1748,-0.1749,-0.175,-0.1751,-0.1786,-0.1786,-0.1786,0,0,0,0,0,0,0,0,0,0,0,0,0,0,0,-0.169,-0.1691,0,-0.1713,-0.1713,-0.1713,-0.1748,-0.1749,-0.175,-0.1751,-0.1786,-0.1786,-0.1786,0,0,0,0,0,0,0,0,0,0,0,0,0,0,0,0,0,0,0,0,0,0,0,0,0,0,0,0,0,0,0,0,0,0,0,0,0,0,0,0,0,0,0,0,0,0,0,0,0,0,0,0,0,0,0,0,0,0,0,0,0,0,0,0,0,0,0,0,0]}],[{"header":{"parameterUnit":"kt","parameterCategory":2,"dx":1,"dy":1,"la1":30.253999710083008,"la2":30.299108505249023,"lo1":-89.0895004272461,"lo2":-89.04439544677734,"nx":28,"ny":28,"refTime":"2022-10-19T09:00:00:Z","depth":"4","parameterNumber":3,"parameterNumberName":"V-component_of_CURRENTS"},"data":[0.0245,0.0355,0.0451,0.0739,0.0858,0.098,0.0938,0.0754,0.0666,0.034,0.0329,0.0074,0.0086,-0.0059,0.004,0.0042,0.009,0.0005,0.0008,0.0046,0.0042,0.0038,0.0057,0,0,0,0,0,0.0159,0.028,0.0395,0.0522,0.0612,0.0686,0.0626,0.0525,0.0258,0.0189,0.0032,0.0006,-0.0033,-0.0063,0.002,-0.0014,0.0056,0.0093,0.0134,0.0043,0.0038,0.0059,0,0,0,0,0,0,0.0078,0.0107,0.0187,0.0305,0.0383,0.0492,0.0412,0.0377,0.029,-0.001,-0.0061,-0.0162,-0.0275,-0.0197,-0.0138,-0.0072,-0.0045,0.0001,-0.0001,-0.0006,0.0005,0.0014,0.0024,0,0,0,0,0,0.0037,0.0027,0.0022,0.0147,0.0193,0.0219,0.0223,0.0169,0.0041,-0.0099,-0.0222,-0.0258,-0.0249,-0.0205,-0.014,-0.0075,-0.0052,-0.0019,-0.0021,0.0006,0.0013,0.0034,0.0034,0.0019,0.0019,0.0018,0.0018,0,0.0021,0.0006,-0.0021,0.0025,0.002,-0.0005,0.0031,-0.0072,-0.0068,-0.0246,-0.0229,-0.0287,-0.029,-0.0218,-0.0174,-0.0091,-0.0062,-0.0032,-0.0005,0.0005,0.0027,0.0029,0.003,0.0014,0.0014,0.0015,0.0015,0,0.0018,-0.0001,-0.0025,-0.0063,-0.0068,-0.0085,-0.0119,-0.0107,-0.0197,-0.0233,-0.0243,-0.0281,-0.0268,-0.0231,-0.019,-0.0131,-0.0082,-0.005,-0.0096,-0.0075,0.0021,0.0025,0.0008,0.0009,0.001,0.0011,0.0012,0,0.0015,-0.0002,-0.003,-0.0042,-0.0069,-0.0096,-0.0128,-0.0149,-0.0191,-0.0218,-0.0226,-0.0248,-0.0218,-0.0204,-0.0153,-0.0096,-0.0128,-0.0034,-0.0014,-0.0046,-0.0042,0.0052,0.0067,-0.0079,-0.0079,-0.0079,-0.0079,0,0.0027,0.0002,-0.0024,-0.0032,-0.0062,-0.0082,-0.0099,-0.0129,-0.0149,-0.0179,-0.0196,-0.0204,-0.0201,-0.0177,-0.0121,-0.011,-0.0105,-0.0079,-0.0013,-0.0009,0.0058,0.0073,-0.0079,-0.0079,-0.0079,-0.0079,-0.0079,0,0.0036,0.0022,-0.0004,-0.0036,-0.0041,-0.0055,-0.0092,-0.0108,-0.0133,-0.0139,-0.0152,-0.0132,-0.0144,-0.0105,-0.0094,-0.0086,-0.0053,-0.0031,-0.0031,0.0111,0.0162,0.0155,-0.0,0.0,0.0001,0.0001,0.0002,0,0.0044,0.0026,0.0025,0.0001,-0.0008,-0.0008,-0.0031,-0.0043,-0.0048,-0.0068,-0.006,-0.0059,-0.0024,-0.0021,-0.0032,0.0009,-0.0008,0.0006,0.0119,0.0123,0.0166,0.004,0.0016,0.0009,0.0008,0.0007,0.0007,0,0.0058,0.0051,0.005,0.0039,0.0041,0.004,0.0021,0.001,-0.001,-0.0002,-0.0027,-0.0003,0.0011,0.006,0.0093,0.0089,0.0006,0.0154,0.016,0.0142,-0.0003,0.0043,0.0044,0.0021,0.002,0.002,0.0012,0,0.0063,0.0059,0.0059,0.0059,0.0059,0.0058,0.0065,0.006,0.0067,0.0075,0.0066,0.0128,0.0183,0.0166,0.0232,0.0186,0.0228,0.027,0.0375,0.0269,0.0281,0.0276,0.0398,0.0402,0.0405,0.0408,0,0,0.0074,0.0074,0.0092,0.009,0.009,0.0114,0.0106,0.0118,0.0165,0.0165,0.019,0.0262,0.0339,0.0349,0.0308,0.0355,0.0379,0.0428,0.0322,0.0312,0.0303,0.0308,0.0299,0.0415,0.0416,0.0417,0.0418,0,0.0083,0.0092,0.009,0.0097,0.0112,0.013,0.0124,0.0154,0.0164,0.0198,0.0246,0.0264,0.0395,0.0426,0.047,0.0401,0.0501,0.0416,0.0356,0.0351,0.0335,0.0323,0.0323,0.0313,0.0427,0.0426,0.0426,0,0.0093,0.0105,0.0106,0.0122,0.0144,0.0147,0.0179,0.0193,0.019,0.0315,0.0345,0.0392,0.0505,0.0534,0.0565,0.0626,0.0625,0.0652,0.0636,0.0679,0.0682,0.0664,0.0648,0.0858,0.0859,0.0859,0,0,0.0099,0.0102,0.0123,0.0127,0.0133,0.0168,0.0182,0.0202,0.0258,0.0284,0.0366,0.0455,0.0509,0.0571,0.0644,0.0706,0.0765,0.0695,0.0675,0.0658,0.069,0.069,0.0672,0.0861,0.0861,0.0861,0,0,0.0109,0.0129,0.0136,0.0142,0.0157,0.0205,0.0216,0.0232,0.0296,0.0309,0.0426,0.0461,0.0501,0.0609,0.0621,0.0668,0.0762,0.0764,0.0586,0.0563,0.0543,0.0555,0.0731,0,0,0,0,0,0.0123,0.0122,0.0126,0.013,0.0174,0.0195,0.0204,0.0244,0.0258,0.0261,0.0342,0.043,0.0621,0.0636,0.0672,0.0631,0.089,0.0885,0.088,0.0665,0.0639,0.0617,0,0,0,0,0,0,0.0124,0.0129,0.0127,0.0169,0.0179,0.0196,0.0233,0.0245,0.0258,0.0264,0.0406,0.0435,0.0526,0.0627,0.0657,0.0614,0.0721,0.0888,0.0884,0.088,0.0656,0.0635,0.0617,0,0,0,0,0,0.0126,0.0129,0.0184,0.0171,0.018,0.0228,0.0234,0.0244,0.026,0.0393,0.0419,0.0285,0.0523,0.0557,0.0646,0.0596,0.0701,0.0712,0.0885,0.0882,0.0879,0.0646,0,0,0,0,0,0,0.0127,0.0154,0.0187,0.0192,0.017,0.0229,0.0238,0.0242,0.0393,0.0413,0.0281,0.0284,0.0522,0.0548,0.0574,0.058,0.0685,0.0696,0.0703,0.0883,0.088,0.0878,0,0,0,0,0,0,0.0152,0.0158,0.019,0.0187,0.0192,0.0229,0.0237,0.0349,0.0399,0.0276,0.028,0.0282,0.0519,0.0542,0.0562,0.0733,0.0672,0.0683,0.069,0.0695,0.088,0.0878,0,0,0,0,0,0,0.0156,0.0161,0.0186,0.019,0.0195,0.0259,0.0336,0.0404,0.031,0.0273,0.0311,0.0312,0.0514,0.0534,0.0554,0.0716,0.0729,0.0672,0.068,0.0685,0.0688,0,0,0,0,0,0,0,0.0159,0.0109,0.015,0.0193,0.0197,0.0237,0.0239,0.0241,0.0311,0.0311,0.0311,0.0312,0.0612,0.0623,0.0635,0.0701,0,0,0.0671,0.0677,0,0,0,0,0,0,0,0,0.0108,0.0108,0.0151,0.0151,0.0152,0.0237,0.0239,0.0241,0.0311,0.0311,0.0311,0.0311,0.0615,0.0624,0.0634,0,0,0,0,0,0,0,0,0,0,0,0,0,0,0,0.0151,0.0151,0,0.0238,0.0239,0.024,0.0311,0.0311,0.0311,0.0311,0.0617,0.0625,0.0633,0,0,0,0,0,0,0,0,0,0,0,0,0,0,0,0,0,0,0,0,0,0,0,0,0,0,0,0,0,0,0,0,0,0,0,0,0,0,0,0,0,0,0,0,0,0,0,0,0,0,0,0,0,0,0,0,0,0,0,0,0,0,0,0,0,0,0,0,0]}]]]